[[{"header":{"parameterUnit":"m.s-1","parameterCategory":1,"la1":30.2991,"la2":30.254,"lo1":-89.0895,"lo2":-89.0444,"dy":0.0017,"dx":0.0017,"nx":28,"ny":28,"refTime":"2025-07-17T03:00:00:Z","depth":0,"parameterNumber":2,"parameterNumberName":"U-component_of_WINDS"},"data":[0,0,0,0,0,0,0,0,0,0,0,0,0,0,0,0,0,0,0,0,0,0,0,0,0,0,0,0,0,0,0,0,0,0,0,0,0,0,0,0,0,0,0,0,0,0,0,0,0,0,0,0,0,0,0,0,0,0,1.391,1.3911,0,1.3977,1.3977,1.3978,1.3947,1.3946,1.3944,1.3942,1.4015,1.4018,1.4021,0,0,0,0,0,0,0,0,0,0,0,0,0,1.3759,1.3762,1.391,1.3911,1.3912,1.3976,1.3977,1.3978,1.3948,1.3946,1.3943,1.3942,1.4013,1.4018,1.4022,0,0,0,0,0,0,0,0,0,0,0,0,0,1.3825,1.3763,1.391,1.3904,1.3904,1.3976,1.3977,1.3978,1.3948,1.3945,1.3943,1.3941,1.4012,1.4017,1.4022,1.4105,0,0,1.4038,1.4041,0,0,0,0,0,0,0,0,1.3821,1.3831,1.3904,1.3905,1.3905,1.3951,1.395,1.4021,1.3949,1.3932,1.3942,1.3939,1.3996,1.4002,1.402,1.4109,1.4112,1.4039,1.4042,1.4044,1.4046,0,0,0,0,0,0,0,1.3817,1.3828,1.3936,1.3905,1.3906,1.3899,1.3906,1.3964,1.3977,1.3933,1.3931,1.3939,1.3995,1.4015,1.4022,1.4113,1.4039,1.4043,1.4047,1.4049,1.427,1.4273,0,0,0,0,0,0,1.3812,1.3824,1.3934,1.3938,1.3856,1.3904,1.3911,1.3939,1.3976,1.398,1.3941,1.3937,1.4008,1.4016,1.4024,1.4122,1.4044,1.4049,1.4052,1.4267,1.4271,1.4274,0,0,0,0,0,0,1.3809,1.3822,1.3932,1.3881,1.3894,1.3909,1.394,1.3941,1.3961,1.3982,1.3985,1.3958,1.4006,1.4017,1.4084,1.4124,1.4051,1.4056,1.4264,1.4268,1.4272,1.4319,0,0,0,0,0,0,1.3805,1.3821,1.3852,1.3882,1.3897,1.399,1.3943,1.3945,1.397,1.3965,1.4,1.4003,1.4005,1.4077,1.409,1.413,1.406,1.4261,1.4266,1.4271,1.4314,1.4325,1.4333,0,0,0,0,0,1.3799,1.3864,1.3854,1.3868,1.3936,1.3993,1.4001,1.4001,1.3973,1.4005,1.4018,1.4002,1.4118,1.4084,1.4098,1.4141,1.4258,1.4265,1.4271,1.431,1.4323,1.4333,0,0,0,0,0,0,1.3842,1.3868,1.3857,1.3933,1.3961,1.3987,1.4027,1.4015,1.4052,1.4046,1.4046,1.4054,1.4123,1.4139,1.4101,1.4222,1.4184,1.4193,1.4209,1.4221,1.423,1.4225,1.4065,0,0,0,0,0,1.3859,1.3902,1.3924,1.3989,1.4003,1.4013,1.4037,1.4034,1.4063,1.4075,1.4094,1.4123,1.4166,1.4195,1.4235,1.4316,1.4323,1.4353,1.4362,1.437,1.4378,1.442,1.4433,1.4294,1.4294,1.4294,0,0,1.3897,1.3917,1.3945,1.3998,1.4018,1.4063,1.4023,1.4072,1.4105,1.4083,1.4147,1.4162,1.4195,1.4269,1.4303,1.4284,1.4418,1.4378,1.4384,1.4388,1.4428,1.4441,1.4453,1.4298,1.4297,1.4297,0,0,1.3989,1.4009,1.4064,1.4085,1.4116,1.4122,1.4135,1.4163,1.4171,1.4235,1.4219,1.4259,1.4334,1.4357,1.4379,1.4477,1.4463,1.449,1.454,1.4581,1.4592,1.4602,1.4636,1.4648,1.4498,1.4498,1.4499,0,1.4032,1.4098,1.4094,1.4144,1.4168,1.4148,1.4204,1.4225,1.4269,1.4286,1.4264,1.4355,1.4376,1.4454,1.4478,1.4497,1.4512,1.4486,1.4591,1.46,1.4609,1.4642,1.4654,1.4501,1.4501,1.4501,1.4501,0,1.4149,1.4195,1.4236,1.4276,1.4304,1.4357,1.4362,1.4391,1.4385,1.4394,1.4458,1.4483,1.4527,1.4545,1.4542,1.4623,1.461,1.459,1.4552,1.4626,1.4656,1.4668,1.4506,1.4505,1.4504,1.4503,0,0,1.427,1.4306,1.4321,1.4338,1.437,1.4406,1.4457,1.4499,1.4523,1.4554,1.4597,1.4659,1.464,1.4664,1.4663,1.4699,1.4773,1.4674,1.4675,1.469,1.4863,1.4878,1.4892,1.4764,1.4767,1.4768,1.486,0,1.4362,1.4451,1.4449,1.4532,1.4573,1.4554,1.4599,1.4624,1.4632,1.4669,1.468,1.4723,1.4695,1.4709,1.4744,1.4757,1.4808,1.475,1.4804,1.4806,1.4796,1.4908,1.4924,1.5009,1.4872,1.4874,1.4875,0,1.4483,1.4514,1.4601,1.4625,1.4642,1.4683,1.4719,1.4755,1.4783,1.4786,1.4813,1.4805,1.4857,1.4817,1.489,1.485,1.4872,1.4882,1.4885,1.489,1.4845,1.4915,1.5036,1.5049,1.4894,1.4893,1.4891,0,1.456,1.4625,1.4685,1.47,1.473,1.4759,1.4773,1.4797,1.4822,1.4855,1.487,1.491,1.4931,1.4962,1.4965,1.4936,1.5037,1.4998,1.5041,1.5041,1.5064,1.5062,1.519,1.5079,1.5079,1.5079,1.5079,0,1.4663,1.4717,1.4719,1.4756,1.4815,1.4812,1.4871,1.4882,1.4904,1.4943,1.493,1.4966,1.4968,1.5006,1.5009,1.5067,1.5078,1.5082,1.5082,1.5083,1.5082,1.5097,1.5091,1.5082,1.5081,1.5081,1.508,0,1.476,1.4764,1.4827,1.4849,1.4856,1.4899,1.4918,1.4953,1.496,1.5009,1.502,1.5031,1.5075,1.5081,1.5133,1.5134,1.5204,1.5199,1.5194,1.5193,1.5236,1.5232,1.5377,1.5396,1.5274,1.5275,1.5276,0,1.4825,1.4865,1.4891,1.4915,1.493,1.4969,1.4993,1.4992,1.5018,1.5051,1.5082,1.5123,1.5157,1.5228,1.5241,1.528,1.5275,1.5323,1.5281,1.5279,1.5274,1.5271,1.5275,1.5331,1.5332,1.5333,1.5334,0,1.494,1.4939,1.4974,1.5009,1.5037,1.5065,1.5092,1.5112,1.5114,1.5144,1.5187,1.5213,1.5264,1.5306,1.5344,1.5359,1.5347,1.5347,1.5359,1.536,1.5355,1.5357,1.5216,1.5344,1.5343,1.5342,1.5342,1.5341,1.5022,1.5055,1.5078,1.5117,1.5136,1.516,1.5193,1.5203,1.5239,1.5279,1.5277,1.5324,1.535,1.5399,1.5417,1.5455,1.5439,1.5457,1.5461,1.5465,1.5469,1.535,1.5462,1.5462,1.5461,1.5461,1.5461,0,1.5134,1.5147,1.5183,1.5219,1.5249,1.5233,1.5261,1.5288,1.5329,1.5353,1.5385,1.5434,1.5474,1.549,1.5529,1.5556,1.5551,1.5566,1.5564,1.5567,1.5481,1.5466,1.5569,1.5569,1.5569,1.5569,1.5569,1.5569,1.5196,1.5252,1.5254,1.5319,1.5333,1.5378,1.5395,1.5417,1.5436,1.5491,1.5523,1.5532,1.5553,1.5593,1.5629,1.5632,1.5647,1.5664,1.5665,1.5585,1.5574,1.5563,1.5549,1.5667,1.5668,1.5748,1.5749,1.5749]},{"header":{"parameterUnit":"m.s-1","parameterCategory":1,"la1":30.2991,"la2":30.254,"lo1":-89.0895,"lo2":-89.0444,"dy":0.0017,"dx":0.0017,"nx":28,"ny":28,"refTime":"2025-07-17T03:00:00:Z","depth":0,"parameterNumber":3,"parameterNumberName":"V-component_of_WINDS"},"data":[0,0,0,0,0,0,0,0,0,0,0,0,0,0,0,0,0,0,0,0,0,0,0,0,0,0,0,0,0,0,0,0,0,0,0,0,0,0,0,0,0,0,0,0,0,0,0,0,0,0,0,0,0,0,0,0,0,0,8.5655,8.5656,0,8.5669,8.5669,8.5669,8.5587,8.5585,8.5583,8.558,8.5592,8.5595,8.5597,0,0,0,0,0,0,0,0,0,0,0,0,0,8.5558,8.556,8.5655,8.5656,8.5656,8.5668,8.5669,8.5669,8.5588,8.5585,8.5582,8.5579,8.5591,8.5594,8.5597,0,0,0,0,0,0,0,0,0,0,0,0,0,8.5588,8.5561,8.5655,8.5617,8.5613,8.5668,8.5669,8.5669,8.5588,8.5585,8.5581,8.5578,8.559,8.5594,8.5598,8.569,0,0,8.5609,8.561,0,0,0,0,0,0,0,0,8.5587,8.5592,8.5622,8.562,8.5616,8.5623,8.5638,8.5676,8.5589,8.5598,8.558,8.5576,8.5605,8.5607,8.5617,8.569,8.5691,8.5609,8.5611,8.5613,8.5614,0,0,0,0,0,0,0,8.5585,8.5591,8.566,8.5623,8.5619,8.5598,8.5598,8.5645,8.5621,8.5597,8.5591,8.5594,8.5603,8.5614,8.5617,8.5691,8.5609,8.5612,8.5615,8.5616,8.5838,8.5842,0,0,0,0,0,0,8.5588,8.559,8.566,8.5661,8.5593,8.5603,8.5603,8.5624,8.562,8.5616,8.5596,8.559,8.5609,8.5613,8.5617,8.5723,8.5613,8.5616,8.5619,8.5835,8.5839,8.5843,0,0,0,0,0,0,8.5586,8.5595,8.566,8.5624,8.563,8.5608,8.5632,8.5626,8.5637,8.562,8.5615,8.5613,8.5607,8.5612,8.5672,8.5722,8.5618,8.5622,8.583,8.5836,8.5841,8.5937,0,0,0,0,0,0,8.5584,8.5595,8.563,8.5625,8.5633,8.5715,8.5635,8.5629,8.5644,8.5635,8.5634,8.563,8.5604,8.5667,8.5676,8.5725,8.5624,8.5826,8.5833,8.5839,8.5929,8.5945,8.5959,0,0,0,0,0,8.5581,8.5657,8.5633,8.5641,8.5677,8.5718,8.5722,8.5692,8.5649,8.5683,8.5672,8.563,8.5716,8.5674,8.5683,8.5735,8.5822,8.5831,8.5839,8.5922,8.5942,8.5958,0,0,0,0,0,0,8.5668,8.5655,8.5628,8.5705,8.5714,8.5704,8.5747,8.5714,8.5734,8.5725,8.5685,8.5686,8.5752,8.575,8.5703,8.5823,8.5761,8.5772,8.5822,8.584,8.5854,8.5853,8.5627,0,0,0,0,0,8.5697,8.5732,8.5719,8.5788,8.5794,8.577,8.5787,8.5763,8.577,8.5773,8.5765,8.5773,8.5801,8.5821,8.5846,8.5929,8.5926,8.5969,8.5984,8.5996,8.6005,8.6047,8.6065,8.587,8.587,8.587,0,0,8.5755,8.5753,8.5778,8.5806,8.5809,8.5846,8.5774,8.5816,8.5842,8.5779,8.5834,8.583,8.5836,8.5907,8.5938,8.5907,8.6058,8.6007,8.6016,8.6019,8.6057,8.6075,8.6092,8.5876,8.5875,8.5874,0,0,8.588,8.5883,8.594,8.5945,8.5951,8.5935,8.5949,8.5945,8.5939,8.5995,8.5948,8.5978,8.6029,8.6034,8.6044,8.6171,8.6132,8.618,8.6256,8.6298,8.6313,8.6326,8.637,8.6386,8.619,8.619,8.619,0,8.5952,8.6006,8.5974,8.6019,8.6032,8.5976,8.6033,8.6039,8.6053,8.6063,8.6028,8.6089,8.609,8.6161,8.6192,8.6202,8.6215,8.6179,8.6314,8.6327,8.6338,8.6379,8.6396,8.6195,8.6195,8.6194,8.6194,0,8.6093,8.6132,8.6177,8.6192,8.621,8.6261,8.6235,8.6257,8.6232,8.6219,8.6275,8.6274,8.6297,8.6312,8.6288,8.638,8.636,8.632,8.6257,8.6363,8.6401,8.6416,8.6203,8.6201,8.62,8.6198,0,0,8.6274,8.6269,8.6286,8.6292,8.6294,8.6323,8.6371,8.6394,8.6413,8.6425,8.6462,8.6506,8.6469,8.648,8.6456,8.6492,8.659,8.6447,8.6447,8.6472,8.6689,8.6718,8.6737,8.6566,8.6569,8.6571,8.6688,0,8.6394,8.6476,8.6447,8.653,8.6564,8.6512,8.6553,8.6559,8.6548,8.6575,8.6563,8.6593,8.6543,8.6549,8.6583,8.6571,8.6633,8.6563,8.6599,8.6601,8.6597,8.6757,8.6787,8.6898,8.6703,8.6705,8.6707,0,8.6546,8.6563,8.6649,8.6645,8.6658,8.6696,8.6714,8.674,8.6745,8.6735,8.6747,8.6715,8.676,8.6699,8.676,8.6713,8.6727,8.6723,8.6727,8.6727,8.6659,8.6759,8.6932,8.6948,8.6731,8.6729,8.6727,0,8.6666,8.6711,8.6768,8.6774,8.6771,8.6799,8.6799,8.68,8.6815,8.6831,8.684,8.6862,8.6873,8.689,8.6863,8.6822,8.6928,8.6865,8.6919,8.692,8.6942,8.6941,8.7118,8.6955,8.6955,8.6954,8.6954,0,8.6802,8.6857,8.6821,8.6856,8.6915,8.6882,8.694,8.6934,8.6936,8.6968,8.6925,8.6956,8.692,8.6948,8.6928,8.6981,8.6987,8.6978,8.6972,8.6981,8.6982,8.6988,8.6979,8.6959,8.6958,8.6957,8.6956,0,8.6946,8.6925,8.6983,8.6975,8.6974,8.7017,8.701,8.7041,8.7028,8.7069,8.7077,8.7055,8.7085,8.7061,8.7091,8.7077,8.7146,8.713,8.7144,8.7139,8.7194,8.7188,8.7379,8.7401,8.7226,8.7228,8.723,0,8.7033,8.7073,8.707,8.7088,8.7091,8.7121,8.7136,8.7105,8.7122,8.713,8.7161,8.7187,8.7206,8.7256,8.7242,8.7264,8.7247,8.7312,8.725,8.7257,8.7245,8.7242,8.7245,8.7324,8.7326,8.7328,8.7329,0,8.719,8.7177,8.7201,8.7221,8.724,8.7255,8.7265,8.7283,8.7251,8.7272,8.7302,8.7317,8.7347,8.7372,8.739,8.7389,8.7354,8.735,8.7363,8.7371,8.7377,8.7372,8.7177,8.7345,8.7343,8.7342,8.7341,8.7341,8.7306,8.7339,8.7341,8.7369,8.7373,8.7384,8.7413,8.7403,8.7427,8.7448,8.7429,8.7464,8.7467,8.7487,8.749,8.7517,8.749,8.751,8.7514,8.7519,8.7526,8.7375,8.752,8.752,8.752,8.7519,8.7519,0,8.7459,8.7458,8.7484,8.75,8.7521,8.7487,8.7496,8.7516,8.7548,8.7554,8.7574,8.7607,8.7632,8.7621,8.7643,8.7666,8.765,8.7673,8.7669,8.7669,8.755,8.7535,8.7685,8.7685,8.7685,8.7685,8.7685,8.7685,8.7541,8.7594,8.7581,8.7636,8.7634,8.7668,8.7677,8.7686,8.769,8.773,8.775,8.7743,8.7741,8.7762,8.7783,8.7779,8.7788,8.7816,8.7806,8.7695,8.7678,8.7662,8.7648,8.7819,8.7819,8.7923,8.7924,8.7925]}]]